TITAN 3C TRANSTAGE DEB, 33513

Orbit data source: Space-Track

TITAN 3C TRANSTAGE DEB, 33513 is space debris in GEO originally from a launch on Thu, 26 Sep 1968 UTC launched from the Air Force Eastern Test Range (AFETR). Debris objects in space refer to the collection of defunct objects orbiting the Earth. Examples of debris include non-operational satellites, rocket bodies, and fragments generated from explosions, collisions, or faulty payload assembly.

Loading next visibility...
Identifier
33513, 1968-081P
Orbit
GEO
Country
Flag of USUS
Related business
Manufacturer
Unknown
Mission
Spacecraft
Bus & Motor
Unknown
Mass
Unknown
Launch date (UTC)
1968-09-26 (58 years ago)
Launch vehicle
Unknown
Launch site
Air Force Eastern Test Range (AFETR)
Object type
Payload
Rocket body
Debris
Shape & HBR
Unknown shape, 1.1 m
Radar Cross Section
Medium (>0.1 m² and <1 m²)

Expand to show TLE details & history
Last TLE update: 8 hours ago

TLE from 8 hours ago
0 TITAN 3C TRANSTAGE DEB
1 33513U 68081P   26112.12432750 -.00000229  00000-0  00000+0 0  9997
2 33513   1.9297  48.8686 0086277 287.9936 175.6364  1.01397590 47300
Epoch: 2026-04-22T02:59Z
TLE epoch observation values (Epoch: 2026-04-22T02:59:01.895Z)
Latitude
1.85867°
Longitude
-102.35983°
Altitude
35,832.494 km
Speed
3.06 km/s
True Right ascension
10h 10m 21s
True Declination
1° 51' 24"
Sunlit
Object was in daylight at epoch
Visualization orbit readout
Latitude
Unknown
Longitude
Unknown
Altitude
Unknown
Speed
Unknown
Apparent Right ascension
Unknown
Apparent Declination
Unknown
Sunlit
N/A
Visualization observer readout
Local Sidereal Time
17:57:14
Azimuth
Unknown
Elevation
Unknown
Doppler factor
Unknown
Orbital elements
Apogee altitude
35,836.087 km
Perigee altitude
35,113.895 km
Semi-major axis
41,853.128 km
Eccentricity
0.00863
Inclination
1.9297°
RAAN
48.8686°
Arg. of periapsis
287.9936°
True anomaly
175.71082°
Mean anomaly
175.6364°
Eccentric anomaly
175.67369°
Mean motion
0.25348 °/min
Orbital period
1,420.21 mins
BSTAR
0
Loading maneuver chart data...
Computing Atmospheric mass density...

Documentation

Showing up to 5 results
|